Theta_e
297 297 297 298 297 297 297 297 296 296 295 296 296 296 297 298 297 299 299 300 299 296 296 298 300 302 305 310 315 321 322 323 323 323 322 322 322 323 324 325 327 336 337 337 337
297 297 297 297 297 297 296 297 297 297 296 296 296 297 297 298 297 295 296 296 295 295 296 297 300 300 307 311 315 318 319 322 321 321 322 322 322 323 323 323 324 325 336 337 338
297 296 297 297 297 297 297 297 298 297 297 297 297 296 297 298 296 295 295 295 295 295 296 297 299 303 309 309 309 308 319 309 315 309 309 316 322 323 323 322 324 325 328 338 338
297 297 297 297 298 297 297 298 298 297 296 297 296 296 298 298 293 295 296 296 296 296 296 296 297 304 304 305 307 307 309 308 307 307 310 313 315 319 322 322 324 323 325 336 339
297 297 297 297 298 298 297 297 297 297 296 297 297 298 298 296 296 296 296 297 297 297 296 296 297 298 297 300 302 308 305 304 304 306 308 310 312 317 320 323 323 324 324 332 338
297 297 297 297 298 297 297 297 297 297 296 296 296 296 296 294 295 295 296 297 298 299 299 298 299 299 299 299 302 302 301 303 304 304 307 312 315 318 320 322 323 324 324 326 336
297 297 297 297 297 297 297 296 297 297 297 297 296 296 294 295 294 295 297 298 298 298 299 300 300 299 300 298 300 301 303 303 304 303 308 312 314 316 318 320 322 323 326 328 332
296 296 297 297 296 296 296 297 297 297 297 297 296 296 294 295 294 296 296 296 296 298 299 299 300 298 298 298 299 297 297 296 297 299 300 300 309 312 315 311 311 318 321 326 329
296 296 297 297 296 296 296 297 297 297 296 296 296 296 296 295 295 295 296 296 296 298 299 299 298 297 297 294 294 293 295 295 295 297 298 299 299 301 301 305 308 310 317 320 322
297 297 296 296 296 296 297 297 297 297 297 296 296 296 296 296 295 295 295 295 295 296 297 298 297 294 293 293 295 296 295 295 295 297 298 298 298 299 300 300 302 304 309 314 316
297 297 297 296 297 297 297 297 298 297 296 295 295 295 295 296 295 295 295 296 295 295 293 296 295 295 295 296 296 295 295 294 295 298 298 297 297 297 299 300 301 302 304 310 315
297 297 297 297 297 297 297 297 297 296 295 296 296 295 296 296 295 295 295 296 296 294 294 293 295 295 297 296 296 296 296 294 296 297 298 296 296 297 298 299 300 301 301 306 311
297 297 297 297 297 296 296 295 296 297 296 295 295 295 295 296 295 295 295 296 296 295 294 294 296 296 296 296 297 297 296 297 297 297 297 295 295 295 296 297 300 301 303 304 307
297 297 297 296 297 295 295 294 294 298 287 294 295 295 295 295 295 295 295 295 295 295 295 294 295 295 296 297 297 298 296 297 298 296 296 296 298 294 294 296 299 300 303 302 304
298 298 297 297 296 295 294 294 294 299 292 294 295 295 295 295 295 295 295 295 295 295 293 293 294 294 297 297 297 298 297 297 296 295 297 296 294 293 295 297 298 300 303 302 303
301 300 298 297 296 295 294 294 297 293 292 290 293 294 295 295 294 294 294 296 296 295 293 294 295 296 296 297 297 296 296 295 294 296 290 295 295 296 296 297 297 298 303 299 299
302 300 299 297 297 295 294 295 294 294 289 289 288 294 294 294 293 293 293 295 296 289 287 292 294 293 297 295 294 294 292 290 289 287 292 294 296 295 296 297 296 297 301 298 297
301 301 300 298 297 295 294 291 291 284 283 292 293 293 294 293 293 292 293 291 294 292 286 288 291 294 294 294 293 294 294 292 292 296 295 296 297 295 295 296 298 299 298 296 296
302 301 300 299 298 296 294 288 292 288 292 292 292 288 281 291 292 292 290 290 293 289 287 286 290 292 293 293 294 295 289 294 294 296 296 296 295 295 296 295 297 297 295 295 295
301 301 300 300 298 295 290 294 289 293 294 293 291 289 284 281 289 288 286 288 293 294 291 289 288 292 293 294 293 294 295 291 289 287 290 294 294 293 294 294 295 295 294 294 294
300 299 299 299 298 294 289 285 287 293 294 293 292 288 289 287 285 283 285 286 292 293 292 284 290 291 290 289 293 293 291 290 288 292 293 295 294 293 293 293 293 292 293 293 293
299 296 297 296 294 286 283 284 293 292 294 294 293 293 292 291 287 288 286 288 293 295 294 290 288 293 291 291 292 292 293 292 288 290 294 294 292 294 293 293 292 292 293 293 293
299 298 297 295 288 283 285 289 291 292 292 291 292 293 293 293 288 291 291 293 294 295 291 290 285 286 291 289 289 287 293 294 293 292 292 293 292 293 292 293 293 293 293 293 293
299 293 295 294 293 286 285 286 288 291 293 292 291 293 293 293 292 286 292 294 294 294 295 294 287 288 290 291 283 289 289 292 292 293 292 292 293 293 293 293 293 293 293 293 293
298 296 295 291 290 291 289 289 291 291 292 293 292 292 291 287 293 293 292 293 293 295 295 292 288 288 292 293 293 293 292 292 293 293 293 293 292 293 293 293 293 293 293 293 293
299 296 292 290 291 286 288 289 292 291 290 290 291 293 291 289 291 292 292 291 291 292 293 290 287 285 291 292 291 291 291 291 292 292 293 293 293 293 293 293 292 293 293 292 293
300 299 297 292 288 287 288 291 292 292 292 292 292 293 292 293 292 292 293 292 293 292 291 289 285 284 287 289 289 286 287 288 290 291 292 292 293 293 293 293 293 294 293 294 294
Wind_Speed
15 17 17 17 17 18 18 20 20 18 18 15 13 11 10 12 14 13 22 21 21 23 21 15 7 10 4 1 4 4 0 4 5 4 9 2 4 7 7 8 8 9 9 8 18
16 16 16 17 19 18 18 20 20 19 16 13 12 10 6 8 30 35 24 22 23 24 23 21 14 13 4 5 2 3 1 3 3 5 9 13 9 24 7 13 12 18 20 14 18
15 15 15 16 18 16 17 20 18 19 19 15 14 19 5 6 12 29 26 23 22 21 20 14 9 9 7 8 11 7 1 8 10 24 30 21 18 21 9 12 22 17 21 17 23
13 14 14 15 16 14 16 17 16 21 26 18 16 28 15 7 6 24 23 22 20 19 19 16 16 5 5 5 7 5 5 6 13 23 21 20 22 20 17 13 16 20 16 20 30
12 12 14 14 14 13 13 16 13 15 18 30 17 15 21 26 17 21 19 19 19 20 23 19 25 8 4 5 12 1 11 22 26 29 25 25 21 18 24 31 35 30 29 19 32
9 10 12 13 12 11 11 14 10 12 14 18 21 30 31 22 23 20 17 17 19 20 21 21 13 10 6 5 4 16 18 23 19 26 27 13 18 11 11 19 26 24 30 27 34
7 9 10 12 12 12 12 7 13 7 7 9 18 18 34 22 20 15 14 15 17 15 16 16 19 22 4 5 13 12 6 9 11 21 13 25 18 12 18 24 28 27 25 25 32
7 8 9 11 12 9 10 14 3 10 11 6 7 13 12 22 19 14 17 13 12 11 13 16 14 17 11 6 6 7 6 7 11 17 15 24 20 13 24 26 16 17 25 29 30
7 8 10 11 11 8 4 4 18 3 10 17 9 4 6 20 28 19 19 16 14 12 14 12 10 14 21 5 5 8 5 11 9 21 14 6 21 22 40 34 21 18 15 18 26
6 7 8 9 8 8 9 5 5 19 3 5 11 5 12 14 24 21 15 17 14 8 7 15 8 6 6 7 5 6 4 5 9 10 15 19 19 20 29 34 31 24 18 18 14
5 6 6 9 8 9 9 0 1 2 20 11 9 5 9 13 15 25 17 11 18 15 6 8 8 7 5 3 3 4 4 8 7 8 14 18 22 21 27 30 28 30 26 20 23
5 5 6 8 8 11 9 3 5 6 7 7 8 7 5 10 6 25 20 10 15 5 7 6 4 4 4 3 3 3 5 7 8 13 14 17 23 17 13 14 27 33 31 25 25
5 4 5 6 5 8 11 8 5 5 2 1 3 5 6 7 7 19 22 6 8 6 6 3 2 5 3 4 9 5 3 5 10 11 11 8 10 7 18 21 21 25 19 21 20
4 4 3 5 3 7 9 6 3 2 5 5 3 5 7 5 1 12 15 7 6 6 4 3 4 5 5 4 3 6 3 7 12 14 6 5 9 9 12 10 5 22 24 18 25
5 5 3 2 2 4 4 4 2 2 3 2 4 4 4 5 8 11 11 4 2 3 4 3 6 7 2 2 1 7 7 9 14 12 4 4 1 6 11 15 5 13 19 24 25
5 5 4 3 2 3 4 3 3 6 5 3 4 8 4 7 6 11 8 6 2 3 2 4 6 2 3 4 3 7 8 14 2 1 3 5 2 7 5 6 12 13 15 23 30
7 6 5 4 2 2 3 2 5 5 3 5 1 3 1 5 5 8 6 7 5 7 7 7 2 4 2 5 4 8 5 5 7 5 5 4 10 9 14 18 6 13 10 18 25
7 7 6 6 4 2 2 5 4 2 6 1 2 2 3 4 1 5 3 4 6 5 4 4 8 1 2 2 3 4 3 3 5 4 14 19 6 5 7 12 12 8 9 14 21
7 8 9 8 6 3 1 4 8 7 5 6 2 4 5 3 1 4 1 5 3 4 3 4 6 5 2 2 2 3 2 3 4 11 5 4 6 12 10 10 6 6 15 23 27
7 8 11 9 7 4 2 6 4 5 5 3 5 2 3 4 1 2 1 4 5 5 5 2 6 2 5 5 4 4 1 2 2 4 6 9 12 11 13 13 12 12 19 23 27
7 3 5 9 8 4 3 7 5 7 5 4 6 3 4 2 4 2 3 5 3 4 8 5 4 6 4 3 5 2 3 2 2 2 3 6 11 5 8 6 10 11 24 31 36
8 2 4 9 4 1 3 5 3 5 5 2 2 2 6 5 3 2 5 6 9 12 6 7 4 5 10 4 3 5 4 3 4 5 3 6 14 5 13 9 9 24 35 36 38
7 4 7 15 3 3 3 3 4 4 5 4 5 4 3 5 1 5 5 4 13 10 7 6 1 5 8 5 4 3 3 5 1 2 9 5 9 4 2 18 30 30 36 33 35
8 2 6 11 5 4 4 4 3 8 3 5 5 4 3 4 4 3 4 4 11 13 8 9 4 8 8 10 2 13 11 11 6 6 7 17 30 34 27 21 28 31 34 36 36
13 8 8 4 6 7 6 5 5 5 5 9 2 7 7 4 2 5 4 4 5 7 7 7 5 6 15 20 19 25 25 19 18 22 12 28 17 29 25 23 31 36 36 35 36
13 8 8 6 6 8 5 7 11 4 9 5 4 7 6 6 9 8 6 4 5 3 7 2 4 1 15 11 6 18 20 20 20 20 25 30 33 31 40 34 25 28 28 28 33
34 18 8 9 8 6 6 8 10 12 14 7 17 6 9 19 19 14 8 7 5 7 6 4 2 4 7 7 12 7 7 6 4 8 7 9 18 17 19 22 28 28 28 29 32
Wind_Direction
74 70 67 61 49 46 39 32 25 20 18 22 21 25 35 55 31 58 39 10 354 353 352 350 324 340 323 249 300 323 325 214 215 194 262 198 328 270 301 295 308 269 253 234 203
70 63 58 56 45 37 36 36 39 38 33 32 30 20 28 109 51 46 27 17 6 359 358 3 10 10 59 24 63 29 341 261 262 251 264 266 245 280 297 294 296 295 275 218 205
68 59 56 56 51 38 40 45 58 54 44 56 47 5 136 167 16 15 22 18 10 8 4 5 18 47 63 18 16 345 202 1 333 343 337 331 307 287 275 288 278 272 277 219 198
67 62 55 55 56 41 46 51 63 59 49 51 60 50 84 124 60 6 14 16 19 15 13 25 36 48 64 17 5 347 310 354 314 324 328 316 313 302 294 280 291 302 314 227 201
71 62 56 54 55 49 50 45 68 65 58 54 60 63 70 74 35 18 21 19 24 25 30 35 37 39 49 347 344 61 341 323 313 314 311 308 294 283 284 281 280 292 287 251 217
72 63 55 54 56 50 50 42 67 70 59 49 51 57 55 65 22 16 21 26 23 36 39 45 41 51 47 357 48 317 306 303 308 300 296 280 290 295 299 288 284 280 271 266 228
75 65 57 55 50 48 40 38 43 57 47 38 45 47 45 42 26 21 30 30 23 32 39 44 63 54 9 341 332 308 333 332 26 343 316 325 273 246 294 293 280 265 267 254 239
73 55 43 44 46 49 54 43 31 53 28 23 12 34 63 37 29 41 36 40 37 43 55 68 68 51 32 323 24 4 38 6 328 339 328 348 280 310 300 316 333 320 293 273 259
54 45 35 29 28 21 308 339 33 268 52 43 29 68 40 28 31 33 26 24 49 70 63 71 57 48 30 49 23 24 326 334 326 322 333 6 301 318 316 302 295 300 307 292 273
27 31 31 23 15 356 339 268 266 14 227 334 26 46 21 360 23 25 37 34 34 72 53 41 52 56 28 39 21 322 315 287 303 313 332 320 303 309 306 304 301 293 282 283 282
9 16 20 11 3 5 360 233 68 159 60 65 45 49 353 9 18 22 25 24 35 45 29 23 53 34 356 64 220 236 276 287 283 294 330 308 295 304 301 295 292 290 278 267 274
346 356 355 3 1 7 11 55 88 141 76 58 33 18 345 350 329 19 21 45 35 32 349 28 50 333 307 4 52 41 294 298 289 315 321 298 295 293 291 304 307 296 283 275 273
310 329 340 347 354 5 36 73 96 139 88 342 349 338 347 349 8 7 12 27 41 33 14 64 293 326 32 355 6 347 276 296 294 308 286 306 296 302 298 304 316 316 324 328 312
288 300 317 340 356 8 31 44 85 101 72 298 338 10 347 336 336 18 11 24 41 12 354 271 317 348 347 26 38 321 244 295 300 323 301 59 299 299 292 296 350 346 353 342 345
277 293 296 344 357 20 14 25 113 107 28 223 309 338 2 55 338 7 3 30 87 336 62 278 334 346 331 287 293 259 307 279 296 291 321 297 301 266 298 291 350 5 10 8 7
291 280 263 268 300 353 358 14 132 46 260 339 322 355 21 20 8 341 357 19 47 69 14 250 299 248 265 296 266 296 318 304 328 348 353 272 55 272 283 264 331 335 346 6 14
286 282 262 243 252 310 348 59 34 125 343 288 290 24 133 350 349 25 8 10 33 21 7 328 275 290 327 327 321 15 24 347 354 3 244 343 322 265 278 278 271 284 327 6 14
275 287 259 242 246 276 348 57 94 237 227 277 185 79 93 17 23 337 54 29 40 56 31 35 334 220 41 144 276 320 99 135 302 309 299 297 242 259 281 283 278 335 332 354 357
262 276 263 244 236 244 231 69 206 199 165 155 65 68 313 335 177 12 109 171 161 137 124 8 279 316 291 297 101 335 27 203 249 265 275 260 300 298 293 327 306 339 341 348 345
247 275 253 236 221 212 90 238 199 176 148 149 175 121 211 265 58 59 347 228 152 137 121 227 305 294 309 350 262 199 226 7 9 334 308 285 296 259 304 303 295 329 331 329 330
222 250 241 219 201 196 190 228 227 201 172 165 179 159 215 224 168 249 246 289 210 125 114 132 139 285 13 192 171 13 327 39 124 162 258 307 290 226 272 280 296 311 320 319 316
187 268 217 183 174 98 179 199 203 169 178 160 149 148 178 160 194 253 220 225 188 152 156 192 163 281 252 222 216 180 223 167 126 284 241 281 270 262 263 281 296 310 305 304 306
188 221 217 187 180 241 294 296 233 161 191 156 181 186 155 181 319 207 212 208 182 175 165 173 272 323 337 6 356 137 190 217 116 235 243 243 262 221 232 306 302 298 299 300 300
193 162 216 201 227 147 143 230 241 215 179 165 151 122 129 197 190 265 254 248 196 208 180 160 183 183 221 248 170 283 252 252 251 254 272 239 273 290 296 298 303 301 298 297 301
207 230 183 188 239 192 180 160 157 198 218 193 201 204 162 169 181 229 231 289 227 213 196 167 222 230 248 264 270 267 272 264 240 240 249 269 271 278 286 291 294 295 293 291 296
187 181 183 167 154 150 204 215 182 190 159 236 213 192 173 175 187 192 179 216 216 125 164 191 266 67 295 265 288 286 264 257 246 247 246 258 272 272 281 284 287 292 288 284 297
210 203 194 168 160 133 211 205 202 161 214 194 201 139 197 231 232 248 235 256 216 170 187 173 157 48 262 334 318 287 241 199 210 200 197 226 259 291 297 295 298 300 296 293 298